www.pogodaiklimat.ru

Погода и климат >> Архив погоды >> Австралия >> Квинсленд >> База ВВС Scherger


ПОГОДА на Базе ВВС Scherger

  • Прогноз погоды на Базе ВВС Scherger
  • Монитор погоды на Базе ВВС Scherger

АРХИВ ПОГОДЫ на Базе ВВС Scherger

Время (UTC), дата Ветер
(напр.,м/с)
 
Видим.   Явления Облачность Т
(С)
Тd
(С)
f
(%)
Тe
(С)
Тes
(С)
Комфортность P
(гПа)
Po
(гПа)
Тmin
(С)
Tmax
(С)
R
(мм)
R24
(мм)
S
(см)
17 12.06 Ю 2 н/о 5/5 600 м
[]
+19.9 +18.7 93 +24 +24 комфорт 1013.7 1009.1
20 12.06 Ю 2 н/о н/о +19.8 +18.3 91 +23 +23 комфорт 1013.5 1008.9
23 12.06 ЮВ 3 н/о н/о +23.8 +19.3 76 +29 +29 душно 1014.9 1010.3
02 13.06 В 5 н/о 3/3 1000 м
[]
+28.5 +18.6 55 +34 +39 очень
душно
1013.4 1008.8 +19.2
05 13.06 В 3 н/о 5/5 1500 м
[]
+29.4 +17.9 50 +34 +38 очень
душно
1010.6 1006.0
08 13.06 В 2 н/о 3/3 1500 м
[]
+26.6 +18.5 61 +31 +31 душно 1011.6 1007.0
11 13.06 ЮВ 3 н/о 10/10 1500 м
[]
+24.7 +18.6 69 +29 +29 душно 1014.3 1009.7
14 13.06 ЮВ 3 н/о 5/5 1500 м
[]
+22.8 +18.8 78 +29 +29 очень
душно
1013.8 1009.2 +31.2
17 13.06 ЮВ 3 н/о 10/10 1500 м
[]
+22.5 +19.3 82 +28 +28 душно 1012.7 1008.1
20 13.06 ЮВ 2 н/о н/о +20.8 +18.4 86 +26 +26 душно 1013.0 1008.4
23 13.06 ЮВ 3 н/о н/о +22.5 +19.1 81 +28 +28 душно 1015.0 1010.4
02 14.06 В 4 н/о н/о +26.2 +19.8 68 +32 +32 очень
душно
1013.6 1009.0 +19.9
05 14.06 В 3 н/о 10/10 600 м
[]
+27.5 +20.6 66 +34 +34 очень
душно
1011.3 1006.7
08 14.06 ЮВ 3 н/о 10/10 300 м
[]
+23.7 +20.2 81 +29 +29 душно 1012.3 1007.7
11 14.06 В 2 н/о н/о +22.1 +18.9 82 +27 +27 душно 1013.6 1009.0
14 14.06 ЮВ 1 н/о н/о +21.0 +18.0 83 +27 +27 душно 1013.3 1008.7 +29.1
17 14.06 штиль 0 н/о 4/4 600 м
[]
+18.6 +17.1 91 +19 +19 1012.3 1007.7
20 14.06 ЮВ 2 н/о н/о +19.9 +18.6 92 +23 +23 комфорт 1012.5 1007.9
23 14.06 ЮВ 4 н/о н/о +23.4 +19.8 80 +30 +30 очень
душно
1014.5 1009.9
02 15.06 ЮВ 4 н/о туман местами 10/10 600 м
[]
+24.9 +19.9 74 +30 +30 душно 1013.4 1008.8 +18.6
05 15.06 ЮВ 3 н/о {туман} 10/10 600 м
[]
+28.1 +19.1 58 +33 +33 очень
душно
1010.9 1006.3
08 15.06 В 3 н/о 6/6 1500 м
[]
+24.8 +18.5 68 +29 +29 душно 1012.2 1007.6
11 15.06 В 3 н/о 10/0 2000 м
[]
+24.4 +17.4 65 +28 +28 душно 1014.0 1009.4
14 15.06 ЮВ 2 н/о 10/10 1500 м
[]
+22.5 +17.8 75 +28 +28 душно 1014.5 1009.9 +29.8
17 15.06 ЮВ 2 н/о н/о +19.7 +17.7 88 +23 +23 комфорт 1013.6 1009.0
20 15.06 ЮВ 2 н/о н/о +18.9 +17.7 93 +21 +21 комфорт 1013.7 1009.1
23 15.06 В 3 н/о н/о +24.0 +18.9 73 +29 +29 душно 1015.0 1010.4
02 16.06 В 3 н/о 1/1 1000 м
[]
+29.2 +16.0 45 +32 +43 душно 1013.7 1009.1 +18.7
05 16.06 В 4 н/о 5/5 1500 м
[]
+29.8 +16.6 45 +33 +36 душно 1011.4 1006.8
08 16.06 ЮВ 1 н/о н/о +26.7 +17.8 58 +31 +31 душно 1011.8 1007.2
11 16.06 В 1 н/о н/о +23.4 +17.8 71 +29 +29 душно 1014.4 1009.8
14 16.06 штиль 0 н/о н/о +20.2 +17.4 84 +23 +23 комфорт 1014.7 1010.1 +31.2
17 16.06 ЮВ 2 н/о н/о +19.4 +18.1 92 +22 +22 комфорт 1013.3 1008.7
20 16.06 В 2 н/о 8/8 1000 м
[]
+20.9 +18.7 87 +26 +26 душно 1013.5 1008.9
23 16.06 В 2 н/о 10/10 1500 м
[]
+23.5 +19.6 79 +29 +29 душно 1015.1 1010.5
02 17.06 СВ 3 н/о 10/10 600 м
[]
+28.9 +20.1 59 +35 +35 очень
душно
1013.8 1009.2 +17.7
05 17.06 Ю 2 н/о 9/9 1000 м
[]
+26.9 +18.7 61 +32 +33 очень
душно
1012.4 1007.8
08 17.06 штиль 0 н/о 10/10 1500 м
[]
+24.4 +20.1 77 +30 +30 очень
душно
1012.9 1008.3
11 17.06 В 3 н/о 10/10 1500 м
[]
+23.6 +18.9 75 +28 +28 душно 1014.9 1010.3
14 17.06 штиль 0 н/о 10/10 1500 м
[]
+22.7 +19.7 83 +29 +29 очень
душно
1014.8 1010.2 +29.1
17 17.06 штиль 0 н/о 10/10 1500 м
[]
+21.7 +19.8 89 +27 +27 душно 1013.6 1009.0
20 17.06 штиль 0 н/о 9/0 2000 м
[]
+21.2 +19.1 88 +26 +26 душно 1013.6 1009.0
23 17.06 В 3 н/о н/о +24.6 +19.7 74 +30 +30 очень
душно
1015.0 1010.4
02 18.06 ЮВ 3 н/о 10/10 600 м
[]
+29.0 +19.0 55 +34 +34 очень
душно
1013.9 1009.3 +19.9
08 18.06 В 2 н/о 8/8 1500 м
[]
+26.7 +18.3 60 +31 +31 душно 1012.6 1008.0
11 18.06 В 2 н/о 9/0
[]
+24.2 +17.9 68 +28 +28 душно 1014.7 1010.1
14 18.06 штиль 0 н/о н/о +19.8 +17.0 84 +22 +22 комфорт 1014.2 1009.6
17 18.06 штиль 0 н/о н/о +18.0 +16.5 91 +18 +18 1013.5 1008.9
20 18.06 штиль 0 н/о н/о +17.4 +16.4 94 +17 +17 1013.7 1009.1
23 18.06 ЮВ 2 н/о н/о +22.4 +19.2 82 +28 +28 душно 1015.1 1010.5
02 19.06 В 3 н/о 3/3 600 м
[]
+28.4 +18.8 56 +34 +43 очень
душно
1013.9 1009.3
05 19.06 В 3 н/о 1/1 1500 м
[]
+30.1 +16.5 44 +33 +41 душно 1011.3 1006.7
08 19.06 В 2 н/о н/о +26.4 +16.9 56 +30 +30 душно 1012.2 1007.6
11 19.06 В 3 н/о н/о +23.2 +17.0 68 +28 +28 душно 1014.6 1010.0
14 19.06 ЮВ 1 н/о н/о +20.5 +16.7 79 +25 +25 комфорт 1014.4 1009.8 +31.1

 

Местоположение метеостанции База ВВС Scherger (Квинсленд, Австралия): широта -12.62 долгота 142.09 высота над уровнем моря 39 м.

В архиве по умолчанию представлена погода на Базе ВВС Scherger за последнюю неделю. Архивные данные за месяц целиком и за предыдущие месяцы, начиная с января 2011 года, Вы можете получить, выбрав интересующий диапазон дат из раскрывающегося списка и нажав кнопку "Ввод!".


*Определитесь, кто Вы:
робот инопланетянин человек

Внимание! Время в таблицах - всемирное. Для получения местного времени необходимо прибавить поправку, которая равна 10 ч.

Смотрите также архив погоды в соседних городах и на ближайших метеорологических станциях:

Погода в Аэропорту Вейпа (Квинсленд, Австралия) (21 км)
Погода в Аэропорту Локхарт (Квинсленд, Австралия) (132 км)
Погода в Коэн аэропорту (Квинсленд, Австралия) (170 км)
Погода на Острове Хорн (Квинсленд, Австралия) (228 км)
Погода на Острове Коконат (Квинсленд, Австралия) (305 км)
Погода в Кованьяме (Квинсленд, Австралия) (320 км)
Погода в Палмервилле (Квинсленд, Австралия) (432 км)
Погода на Мысе Флэттери (Квинсленд, Австралия) (436 км)
Погода в Куктауне (Квинсленд, Австралия) (459 км)
Погода в Мерауке (Индонезия) (498 км)

Пояснения к столбцам:

Ветер - указаны скорость ветра в м/с - средняя за 10 мин, порывы в срок и между сроками (в фигурных скобках) и направление, откуда дует ветер: С - северный, СВ - северо-восточный, В - восточный, ЮВ - юго-восточный, Ю - южный, ЮЗ - юго-западный, З - западный, СЗ - северо-западный.
Видимость - горизонтальная дальность видимости в метрах или километрах. При видимости от 1 до 10 км при отсутствии осадков обычно наблюдается дымка, при ухудшении видимости до 1 км и менее - туман. В сухую погоду видимость может ухудшаться дымом, пылью или мглою.
Явления - указаны атмосферные явления, наблюдавшиеся в срок или в последний час перед сроком; фигурными скобками обозначены явления, наблюдавшиеся между сроками (за 1-3 часа до срока); квадратными скобками обозначены град или гололедные отложения с указанием их диаметра в мм.
Облачность - указаны через наклонную черту общая и нижняя облачность в баллах и высота нижней границы облаков в метрах; квадратными скобками обозначены формы облаков: Ci - перистые, Cs - перисто-слоистые, Cc - перисто-кучевые, Ac - высококучевые, As - высокослоистые, Sc - слоисто-кучевые, Ns - слоисто-дождевые, Cu - кучевые, Cb - кучево-дождевые. Подробнее классификацию облаков см. в Атласе облаков (PDF).
T - Температура воздуха - температура, измеренная на высоте 2 м над землей.
Td - Температура точки росы - температура, при понижении до которой содержащийся в воздухе водяной пар достигнет насыщения.
f - Относительная влажность воздуха - влажноcть воздуха, измеренная на высоте 2 м над землей.
Te - Эффективная температура - температура, которую ощущает одетый по сезону человек в тени. Характеристика душности погоды. При расчете учитывается влияние влажности воздуха и скорости ветра на теплоощущения человека.
Tes - Эффективная температура на солнце - температура, которую ощущает человек, с поправкой на солнечный нагрев. Характеристика знойности погоды. Зависит от высоты солнца над горизонтом, облачности и скорости ветра. Ночью, в пасмурную погоду, а также при ветре 12 м/с и более поправка равна нулю.
P - Атмосферное давление - приведенное к уровню моря атмосферное давление.
Po - Атмосферное давление - измеренное на уровне метеостанции атмосферное давление.
Tmin - Минимальная температура - минимум температуры воздуха на высоте 2 м над землей.
Tmax - Максимальная температура - максимум температуры воздуха на высоте 2 м над землей.
R - Количество осадков - Количество выпавших осадков за период времени, мм. При наведении курсора мыши на число - период времени, за который выпало указанное количество осадков.
R24 - Количество осадков - Количество выпавших осадков за 24 часа, мм.
S - Снежный покров - Высота снежного покрова, см. При наведении курсора мыши на число - состояние снежного покрова и степень покрытия местности в баллах.